Regional Weather Roundup
Issued by NWS

Home | Current Version | Previous Version | Graphics & Text | Print | Product List | Glossary On
Versions: 1 2 3 4 5 6 7 8 9 10 11 12 13 14 15 16 17 18 19 20 21 22 23 24 25 26 27 28 29 30 31 32 33 34 35 36 37 38 39 40 41 42 43 44 45 46 47 48 49 50
370
ASUS43 KFSD 240002
RWRSD

WEATHER ROUNDUP FOR SOUTH DAKOTA
NATIONAL WEATHER SERVICE SIOUX FALLS SD
700 PM CDT SAT JUL 23 2016

NOTE: "FAIR" INDICATES FEW OR NO CLOUDS BELOW 12,000 FEET WITH NO
SIGNIFICANT WEATHER AND/OR OBSTRUCTIONS TO VISIBILITY.


SDZ001>005-009-010-012>017-240100-
NORTHWEST AND NORTH CENTRAL SOUTH DAKOTA

CITY           SKY/WX    TMP DP  RH WIND       PRES   REMARKS
BUFFALO          N/A     87  35  15 NW24G32   29.88F
FAITH            N/A     89  38  16 NW16G25   29.89S
MOBRIDGE       SUNNY     87  52  29 NW14G24   29.81R
$$

SDZ012>016-024>037-041>051-057-063-072>074-240100-
SOUTHWEST AND SOUTH CENTRAL SOUTH DAKOTA

CITY           SKY/WX    TMP DP  RH WIND       PRES   REMARKS
RAPID CTY ARPT SUNNY     87  43  21 N16G24    29.94S
PIERRE         SUNNY     88  59  37 NW20      29.81R
CUSTER         SUNNY     79  38  22 SE8G21    30.09S
ELLSWORTH AFB  SUNNY     88  42  19 N21G28    29.94R
PHILIP         SUNNY     92  44  19 N16G23    29.86S
PINE RIDGE     SUNNY     89  47  23 NE14      29.93F
WINNER         FAIR      94  56  27 N22G29    29.82R
$$

SDZ004>011-016>023-039-040-240100-
NORTHEAST SOUTH DAKOTA

CITY           SKY/WX    TMP DP  RH WIND       PRES   REMARKS
ABERDEEN       MOSUNNY   86  71  60 NW20G26   29.74R
WATERTOWN      SUNNY     90  74  59 S10       29.73F HX  99
BROOKINGS      SUNNY     89  75  63 S6        29.74F HX  99
SISSETON         N/A     83  77  82 SE10      29.69F
$$

SDZ017-020-022-023-036>040-048>070-240100-
SOUTHEAST SOUTH DAKOTA

CITY           SKY/WX    TMP DP  RH WIND       PRES   REMARKS
SIOUX FALLS    MOSUNNY   90  72  55 SW8       29.74S HX  97
HURON          MOSUNNY   92  70  48 SW5       29.70R HX  97
CHAMBERLAIN    SUNNY     94  70  45 NW20G25   29.77R HX  99
MITCHELL       SUNNY     96  74  48 CALM      29.70F HX 107
YANKTON        SUNNY     93  73  52 S10       29.70S HX 102
$$

ABBREVIATIONS USED IN REMARKS
   TC - TEMPERATURE IN CELSIUS
  WCI - WIND CHILL INDEX
   HX - HEAT INDEX
  VSB - VISIBILITY





USA.gov is the U.S. government's official web portal to all federal, state and local government web resources and services.